Location: Newark
(48.5667°N, 12.8167°E)
Time: 02:11:02
(UTC+00:00)

METEOR M2 - Pass Details

Date: 24 November 2019
Orbit: 818 x 828 km, 98.5° (Epoch: 13 December)

Event Time Altitude Azimuth Distance (km) Brightness Sun altitude
Exits shadow 18:17:08 17° 1° (N) 2,003 ? -28.7°
Drops below altitude 10° 18:18:19 10° 356° (N) 2,434 ? -28.9°
Sets 18:20:44 0° 351° (N) 3,370 ? -29.3°
